• In Schweiz
  • Länderverzeichnis
  • Für 7 Tage
  • Wassertemperatur
  • Satellitenkarten
  • Wetterkarte
  • Widgets
  • user-avatar
    Anmelden

    Stündliche Wetter Northallerton

    Heute, 11 Dezember, Montag

    Zeit Temperatur Niederschläge Wind Luftdruck Luftfeuchtigkeit
    00:00 -2°C° 0 mm 3 m/S 734 mmHg 85%
    01:00 -2°C° 0 mm 2 m/S 735 mmHg 84%
    02:00 -2°C° 0 mm 2 m/S 735 mmHg 83%
    03:00 -2°C° 0 mm 2 m/S 735 mmHg 81%
    04:00 -2°C° 0 mm 2 m/S 736 mmHg 80%
    05:00 -2°C° 0 mm 2 m/S 736 mmHg 79%
    06:00 -2°C° 0 mm 2 m/S 736 mmHg 78%
    07:00 -2°C° 0 mm 2 m/S 736 mmHg 75%
    08:00 -2°C° 0 mm 2 m/S 737 mmHg 72%
    09:00 -2°C° 0 mm 2 m/S 737 mmHg 69%
    10:00 -1°C° 0 mm 2 m/S 738 mmHg 65%
    11:00 +1°C° 0 mm 2 m/S 738 mmHg 62%
    12:00 +2°C° 0 mm 2 m/S 738 mmHg 58%
    13:00 +1°C° 0 mm 2 m/S 739 mmHg 61%
    14:00 0°C° 0 mm 3 m/S 739 mmHg 64%
    15:00 -1°C° 0 mm 3 m/S 740 mmHg 67%
    16:00 -1°C° 0 mm 3 m/S 740 mmHg 72%
    17:00 -2°C° 0 mm 3 m/S 741 mmHg 77%
    18:00 -2°C° 0 mm 3 m/S 741 mmHg 82%
    19:00 -2°C° 0 mm 3 m/S 742 mmHg 84%
    20:00 -2°C° 0 mm 4 m/S 743 mmHg 87%
    21:00 -2°C° 0 mm 4 m/S 744 mmHg 89%
    22:00 -2°C° 0 mm 4 m/S 744 mmHg 89%
    23:00 -1°C° 0 mm 3 m/S 745 mmHg 89%

    Morgen, 12 Dezember, Dienstag

    Zeit Temperatur Niederschläge Wind Luftdruck Luftfeuchtigkeit
    00:00 -1°C° 0 mm 3 m/S 745 mmHg 89%
    01:00 -1°C° 0 mm 3 m/S 746 mmHg 89%
    02:00 -2°C° 0 mm 3 m/S 746 mmHg 88%
    03:00 -2°C° 0 mm 3 m/S 747 mmHg 87%
    04:00 -2°C° 0 mm 3 m/S 747 mmHg 87%
    05:00 -2°C° 0 mm 3 m/S 748 mmHg 86%
    06:00 -2°C° 0 mm 3 m/S 748 mmHg 86%
    07:00 -2°C° 0 mm 3 m/S 749 mmHg 86%
    08:00 -2°C° 0 mm 2 m/S 749 mmHg 86%
    09:00 -2°C° 0 mm 2 m/S 749 mmHg 85%
    10:00 -1°C° 0 mm 2 m/S 749 mmHg 82%
    11:00 +1°C° 0 mm 2 m/S 749 mmHg 79%
    12:00 +1°C° 0 mm 3 m/S 749 mmHg 75%
    13:00 +1°C° 0 mm 3 m/S 749 mmHg 79%
    14:00 +1°C° 0 mm 3 m/S 749 mmHg 84%
    15:00 +1°C° 0 mm 3 m/S 749 mmHg 88%
    16:00 0°C° 0 mm 4 m/S 749 mmHg 89%
    17:00 0°C° 0 mm 4 m/S 748 mmHg 90%
    18:00 0°C° 0 mm 4 m/S 748 mmHg 92%
    19:00 +1°C° 0,2 mm 5 m/S 747 mmHg 91%
    20:00 +1°C° 0,2 mm 6 m/S 747 mmHg 91%
    21:00 +1°C° 0,2 mm 6 m/S 746 mmHg 91%
    22:00 +2°C° 0,1 mm 6 m/S 745 mmHg 92%
    23:00 +2°C° 0,1 mm 5 m/S 745 mmHg 92%

    übermorgen, 13 Dezember, Mittwoch

    Zeit Temperatur Niederschläge Wind Luftdruck Luftfeuchtigkeit
    00:00 +2°C° 0,1 mm 5 m/S 745 mmHg 93%
    01:00 +3°C° 0 mm 4 m/S 745 mmHg 92%
    02:00 +1°C° 0 mm 4 m/S 744 mmHg 92%
    03:00 +1°C° 0 mm 4 m/S 744 mmHg 91%
    04:00 +1°C° 0 mm 4 m/S 744 mmHg 90%
    05:00 +1°C° 0 mm 4 m/S 744 mmHg 90%
    06:00 +1°C° 0 mm 4 m/S 744 mmHg 90%
    07:00 +1°C° 0,1 mm 4 m/S 743 mmHg 91%
    08:00 +1°C° 0,1 mm 4 m/S 743 mmHg 91%
    09:00 +2°C° 0,1 mm 5 m/S 742 mmHg 92%
    10:00 +2°C° 0,1 mm 5 m/S 742 mmHg 90%
    11:00 +3°C° 0,1 mm 6 m/S 741 mmHg 88%
    12:00 +4°C° 0,1 mm 6 m/S 740 mmHg 87%
    13:00 +3°C° 0,3 mm 7 m/S 740 mmHg 83%
    14:00 +3°C° 0,3 mm 7 m/S 740 mmHg 80%
    15:00 +2°C° 0,3 mm 7 m/S 739 mmHg 77%
    16:00 +2°C° 0 mm 6 m/S 739 mmHg 77%
    17:00 +1°C° 0 mm 6 m/S 739 mmHg 76%
    18:00 -1°C° 0 mm 6 m/S 738 mmHg 76%
    19:00 -1°C° 0,6 mm 6 m/S 738 mmHg 75%
    20:00 0°C° 0,6 mm 7 m/S 737 mmHg 75%
    21:00 0°C° 0,6 mm 8 m/S 737 mmHg 75%
    22:00 -1°C° 0,1 mm 8 m/S 736 mmHg 74%
    23:00 -1°C° 0,1 mm 8 m/S 736 mmHg 73%

    14 Dezember, Donnerstag

    Zeit Temperatur Niederschläge Wind Luftdruck Luftfeuchtigkeit
    00:00 -1°C° 0,1 mm 8 m/S 736 mmHg 73%
    01:00 -1°C° 0,1 mm 7 m/S 736 mmHg 74%
    02:00 -1°C° 0,1 mm 7 m/S 736 mmHg 74%
    03:00 -1°C° 0,1 mm 6 m/S 736 mmHg 75%
    04:00 -1°C° 0 mm 6 m/S 736 mmHg 77%
    05:00 -2°C° 0 mm 6 m/S 736 mmHg 78%
    06:00 -2°C° 0 mm 6 m/S 735 mmHg 80%
    07:00 -1°C° 0 mm 5 m/S 735 mmHg 80%
    08:00 -1°C° 0 mm 5 m/S 735 mmHg 81%
    09:00 0°C° 0 mm 5 m/S 735 mmHg 81%
    10:00 0°C° 0,1 mm 5 m/S 735 mmHg 81%
    11:00 +1°C° 0,1 mm 6 m/S 735 mmHg 80%
    12:00 +1°C° 0,1 mm 6 m/S 735 mmHg 80%
    13:00 +2°C° 0,4 mm 7 m/S 735 mmHg 79%
    14:00 +2°C° 0,4 mm 7 m/S 734 mmHg 79%
    15:00 +1°C° 0,4 mm 8 m/S 734 mmHg 78%
    16:00 +2°C° 0,3 mm 7 m/S 734 mmHg 81%
    17:00 +2°C° 0,3 mm 6 m/S 734 mmHg 83%
    18:00 +2°C° 0,3 mm 6 m/S 734 mmHg 86%
    19:00 +1°C° 0,4 mm 4 m/S 734 mmHg 87%
    20:00 +2°C° 0,4 mm 3 m/S 734 mmHg 89%
    21:00 +3°C° 0,4 mm 2 m/S 734 mmHg 90%
    22:00 +1°C° 0,1 mm 3 m/S 735 mmHg 90%
    23:00 +1°C° 0,1 mm 3 m/S 735 mmHg 90%

    15 Dezember, Freitag

    Zeit Temperatur Niederschläge Wind Luftdruck Luftfeuchtigkeit
    00:00 0°C° 0,1 mm 4 m/S 736 mmHg 90%
    01:00 -1°C° 0 mm 4 m/S 736 mmHg 88%
    02:00 -1°C° 0 mm 4 m/S 737 mmHg 85%
    03:00 -2°C° 0 mm 5 m/S 738 mmHg 82%
    04:00 -2°C° 0 mm 6 m/S 738 mmHg 81%
    05:00 -2°C° 0 mm 7 m/S 739 mmHg 81%
    06:00 -1°C° 0 mm 8 m/S 740 mmHg 81%
    07:00 -1°C° 0 mm 7 m/S 741 mmHg 80%
    08:00 -1°C° 0 mm 7 m/S 742 mmHg 80%
    09:00 -1°C° 0 mm 7 m/S 742 mmHg 80%
    10:00 +1°C° 0 mm 6 m/S 743 mmHg 81%
    11:00 +1°C° 0 mm 6 m/S 744 mmHg 81%
    12:00 +2°C° 0 mm 6 m/S 745 mmHg 82%
    13:00 +1°C° 0 mm 6 m/S 746 mmHg 82%
    14:00 +1°C° 0 mm 6 m/S 747 mmHg 82%
    15:00 +1°C° 0 mm 6 m/S 747 mmHg 82%
    16:00 -1°C° 0 mm 6 m/S 748 mmHg 82%
    17:00 -1°C° 0 mm 5 m/S 749 mmHg 82%
    18:00 -1°C° 0 mm 5 m/S 749 mmHg 82%
    19:00 -1°C° 0 mm 5 m/S 750 mmHg 83%
    20:00 -2°C° 0 mm 5 m/S 750 mmHg 83%
    21:00 -2°C° 0 mm 5 m/S 751 mmHg 83%
    22:00 -2°C° 0 mm 5 m/S 751 mmHg 82%
    23:00 -2°C° 0 mm 5 m/S 751 mmHg 82%

    16 Dezember, Samstag

    Zeit Temperatur Niederschläge Wind Luftdruck Luftfeuchtigkeit
    00:00 -2°C° 0 mm 5 m/S 751 mmHg 81%
    01:00 -2°C° 0 mm 5 m/S 751 mmHg 79%
    02:00 -2°C° 0 mm 5 m/S 752 mmHg 78%
    03:00 -2°C° 0 mm 5 m/S 752 mmHg 76%
    04:00 -2°C° 0 mm 5 m/S 752 mmHg 77%
    05:00 -2°C° 0 mm 4 m/S 752 mmHg 77%
    06:00 -2°C° 0 mm 4 m/S 752 mmHg 78%
    07:00 -2°C° 0 mm 4 m/S 752 mmHg 79%
    08:00 -2°C° 0 mm 4 m/S 753 mmHg 80%
    09:00 -2°C° 0 mm 4 m/S 753 mmHg 81%
    10:00 -1°C° 0 mm 4 m/S 753 mmHg 78%
    11:00 0°C° 0 mm 4 m/S 753 mmHg 75%
    12:00 0°C° 0 mm 4 m/S 753 mmHg 72%
    13:00 0°C° 0 mm 4 m/S 753 mmHg 75%
    14:00 +1°C° 0 mm 3 m/S 753 mmHg 78%
    15:00 0°C° 0 mm 3 m/S 753 mmHg 80%
    16:00 0°C° 0 mm 3 m/S 753 mmHg 83%
    17:00 +1°C° 0 mm 2 m/S 753 mmHg 86%
    18:00 +1°C° 0 mm 2 m/S 753 mmHg 88%
    19:00 0°C° 0,1 mm 3 m/S 752 mmHg 89%
    20:00 +1°C° 0,1 mm 3 m/S 752 mmHg 89%
    21:00 0°C° 0,1 mm 4 m/S 752 mmHg 90%
    22:00 +1°C° 0 mm 3 m/S 752 mmHg 90%
    23:00 0°C° 0 mm 3 m/S 752 mmHg 91%
    Mehr zeigen